User: anonymous   Login
Location: Monroe
(41.9160°N, 83.3980°W)
Time: 03:21:04
(UTC-04:00)
Language:

deb Explorer IX - Orbit

View from above orbital plane
View from above orbital plane
View from above satellite
View from above satellite

Ground track
Ground track

The orbit data is extracted from the following two-line orbital elements,

1 00085U 61004C   16211.56450058  .00001867  00000-0  45890-3 0  9999
2 00085  38.7737  36.2311 0396287  75.6462 288.7930 14.15759429729519
Epoch (UTC): 29 July 2016 13:32:52
Eccentricity: 0.0396287
inclination: 38.7737°
perigee height: 554 km
apogee height: 1126 km
right ascension of ascending node: 36.2311°
argument of perigee: 75.6462°
revolutions per day: 14.15759429
mean anomaly at epoch: 288.7930°
orbit number at epoch: 72951

The dashed part of the orbit path shows where the satellite is in the earth's shadow,  

DLR